This demonstration page uses our WeatherBlox Daily Observations layout. Learn more.

40.92945, -100.16068

Hourly Observations for March 13, 2015

Temp ( °F °C ) Dew Point ( °F °C ) Humidity (%) Winds ( mph kmh ) Pressure ( in mb ) Visibility ( mi km ) Precip ( " mm )
12:15 am 00:15 Clear 57 13.7 30 -1.3 36 36 S 13 20 30.09 1019 10 16.0934 N/A
12:35 am 00:35 Clear 55 12.7 30 -0.9 39 39 S 9 15 30.09 1019 10 16.0934 N/A
12:55 am 00:55 Clear 54 12.3 31 -0.7 41 41 SSW 6 9 30.12 1020 10 16.0934 N/A
1:15 am 01:15 Clear 54 12.1 31 -0.7 41 41 Calm 30.12 1020 10 16.0934 N/A
1:35 am 01:35 Clear 53 11.6 30 -0.9 42 42 Calm 30.12 1020 10 16.0934 N/A
1:55 am 01:55 Clear 52 10.9 30 -1.1 44 44 SSW 5 7 30.15 1021 10 16.0934 N/A
2:15 am 02:15 Clear 51 10.6 30 -1.2 44 44 Calm 30.15 1021 10 16.0934 N/A
2:35 am 02:35 Clear 49 9.2 30 -0.9 50 50 Calm 30.15 1021 10 16.0934 N/A
2:55 am 02:55 Clear 51 10.5 31 -0.7 46 46 SW 5 7 30.15 1021 10 16.0934 N/A
3:15 am 03:15 Clear 54 12.2 31 -0.3 42 42 WSW 7 11 30.12 1020 10 16.0934 N/A
3:35 am 03:35 Clear 46 7.6 31 -0.8 56 56 N 6 9 30.15 1021 10 16.0934 N/A
3:55 am 03:55 Clear 43 6 29 -1.5 59 59 N 5 7 30.18 1022 10 16.0934 N/A
4:15 am 04:15 Clear 43 6 30 -1 61 61 Calm 30.18 1022 10 16.0934 N/A
4:35 am 04:35 Clear 43 6.1 29 -1.6 58 58 NNW 3 6 30.18 1022 10 16.0934 N/A
4:55 am 04:55 Clear 41 5.2 30 -1.2 64 64 Calm 30.18 1022 10 16.0934 N/A
5:15 am 05:15 Clear 40 4.4 29 -1.5 66 66 NNW 6 9 30.21 1023 10 16.0934 N/A
5:35 am 05:35 Clear 36 2.4 28 -2.3 71 71 N 7 11 30.21 1023 10 16.0934 N/A
5:55 am 05:55 Clear 35 1.8 28 -2.3 75 75 Calm 30.21 1023 10 16.0934 N/A
6:15 am 06:15 Clear 37 2.7 28 -2.1 71 71 NW 3 6 30.24 1024 10 16.0934 N/A
6:35 am 06:35 Clear 35 1.5 28 -2.3 76 76 WNW 7 11 30.27 1025 10 16.0934 N/A
6:55 am 06:55 Clear 36 2.3 28 -2 74 74 WNW 7 11 30.27 1025 10 16.0934 N/A
7:15 am 07:15 Clear 35 1.7 28 -2 77 77 WNW 8 13 30.3 1026 10 16.0934 N/A
7:35 am 07:35 Clear 36 2.1 28 -2.3 73 73 W 8 13 30.3 1026 10 16.0934 N/A
7:55 am 07:55 Sunny 36 2.2 29 -1.9 75 75 W 8 13 30.3 1026 10 16.0934 N/A
8:15 am 08:15 Sunny 37 2.7 28 -2 71 71 W 7 11 30.27 1025 10 16.0934 N/A
8:35 am 08:35 Sunny 39 3.8 31 -0.6 73 73 WNW 6 9 30.27 1025 10 16.0934 N/A
8:55 am 08:55 Sunny 42 5.6 32 0.1 68 68 NW 5 7 30.27 1025 10 16.0934 N/A
9:15 am 09:15 Sunny 44 6.8 33 0.6 65 65 NW 3 6 30.27 1025 10 16.0934 N/A
9:35 am 09:35 Sunny 48 8.7 35 1.5 61 61 NW 5 7 30.24 1024 7 11.26538 N/A
9:55 am 09:55 Sunny 52 11.2 34 1.1 50 50 NNW 8 13 30.24 1024 10 16.0934 N/A
10:15 am 10:15 Sunny 56 13.2 33 0.6 42 42 N 12 19 30.21 1023 10 16.0934 N/A
10:35 am 10:35 Sunny 60 15.3 32 0 35 35 N 13 20 30.21 1023 10 16.0934 N/A
10:55 am 10:55 Sunny 62 16.6 32 -0.2 32 32 N 17 28 30.18 1022 10 16.0934 N/A
11:15 am 11:15 Sunny 64 17.7 31 -0.6 29 29 NNE 23 37 30.18 1022 10 16.0934 N/A
11:35 am 11:35 Sunny 66 18.9 31 -0.4 27 27 NNE 25 41 30.15 1021 10 16.0934 N/A
11:55 am 11:55 Sunny 67 19.5 31 -0.3 27 27 NNE 24 39 30.15 1021 10 16.0934 N/A
12:15 pm 12:15 Sunny 69 20.3 31 -0.5 25 25 NNE 25 41 30.15 1021 10 16.0934 N/A
12:35 pm 12:35 Sunny 69 20.5 31 -0.6 24 24 NNE 23 37 30.18 1022 10 16.0934 N/A
12:55 pm 12:55 Sunny 70 20.9 31 -0.6 24 24 N 23 37 30.15 1021 10 16.0934 N/A
1:15 pm 13:15 Sunny 69 20.7 30 -1 23 23 N 24 39 30.15 1021 10 16.0934 N/A
1:35 pm 13:35 Sunny 70 21.2 30 -1.3 22 22 NNE 23 37 30.18 1022 10 16.0934 N/A
1:55 pm 13:55 Sunny 71 21.6 31 -0.7 23 23 NNE 22 35 30.15 1021 10 16.0934 N/A
2:15 pm 14:15 Sunny 70 21.3 32 -0.2 24 24 N 20 31 30.15 1021 10 16.0934 N/A
2:35 pm 14:35 Partly Cloudy 71 21.7 31 -0.8 22 22 NNE 21 33 30.15 1021 10 16.0934 N/A
2:55 pm 14:55 Partly Cloudy 71 21.8 29 -1.4 21 21 N 23 37 30.15 1021 10 16.0934 N/A
3:15 pm 15:15 Sunny 70 21.2 30 -1 23 23 N 22 35 30.12 1020 10 16.0934 N/A
3:35 pm 15:35 Partly Cloudy 71 21.7 29 -1.6 21 21 N 21 33 30.15 1021 10 16.0934 N/A
3:55 pm 15:55 Partly Cloudy 69 20.7 30 -1 23 23 N 20 31 30.15 1021 10 16.0934 N/A
4:15 pm 16:15 Partly Cloudy 68 20.2 31 -0.6 25 25 N 22 35 30.15 1021 10 16.0934 N/A
4:35 pm 16:35 Mostly Cloudy 70 21 30 -1 23 23 N 20 31 30.15 1021 10 16.0934 N/A
4:55 pm 16:55 Mostly Cloudy 69 20.5 30 -1.3 23 23 N 17 28 30.15 1021 10 16.0934 N/A
5:15 pm 17:15 Mostly Cloudy 68 20 29 -1.5 24 24 N 16 26 30.15 1021 10 16.0934 N/A
5:35 pm 17:35 Partly Cloudy 68 20.2 28 -2.1 22 22 N 21 33 30.15 1021 10 16.0934 N/A
5:55 pm 17:55 Partly Cloudy 67 19.7 26 -3.1 21 21 N 17 28 30.15 1021 10 16.0934 N/A
6:15 pm 18:15 Partly Cloudy 66 19.1 25 -3.7 21 21 NNE 16 26 30.15 1021 10 16.0934 N/A
6:35 pm 18:35 Sunny 66 18.7 24 -4.6 20 20 N 17 28 30.15 1021 10 16.0934 N/A
6:55 pm 18:55 Sunny 65 18.1 24 -4.6 21 21 N 16 26 30.18 1022 10 16.0934 N/A
7:15 pm 19:15 Sunny 63 17.3 23 -4.8 22 22 N 15 24 30.18 1022 10 16.0934 N/A
7:35 pm 19:35 Sunny 60 15.7 22 -5.3 23 23 N 12 19 30.21 1023 10 16.0934 N/A
7:55 pm 19:55 Clear 56 13.4 23 -5 28 28 N 8 13 30.24 1024 10 16.0934 N/A
8:15 pm 20:15 Clear 51 10.8 23 -5 33 33 N 9 15 30.27 1025 7 11.26538 N/A
8:35 pm 20:35 Clear 49 9.3 24 -4.7 37 37 N 9 15 30.3 1026 7 11.26538 N/A
8:55 pm 20:55 Clear 46 7.8 23 -5 40 40 N 9 15 30.3 1026 7 11.26538 N/A
9:15 pm 21:15 Clear 44 6.5 23 -5 44 44 N 9 15 30.3 1026 7 11.26538 N/A
9:35 pm 21:35 Clear 43 5.9 23 -5 46 46 N 9 15 30.36 1028 10 16.0934 N/A
9:55 pm 21:55 Clear 42 5.8 23 -4.8 47 47 N 7 11 30.36 1028 10 16.0934 N/A
10:15 pm 22:15 Clear 45 7.2 24 -4.4 44 44 N 7 11 30.33 1027 10 16.0934 N/A
10:35 pm 22:35 Clear 44 6.5 25 -4 47 47 N 9 15 30.33 1027 10 16.0934 N/A
10:55 pm 22:55 Clear 44 6.6 26 -3.4 49 49 N 9 15 30.33 1027 10 16.0934 N/A
11:15 pm 23:15 Clear 45 7.3 26 -3.2 48 48 N 10 17 30.33 1027 10 16.0934 N/A
11:35 pm 23:35 Clear 46 7.5 27 -3 48 48 N 10 17 30.33 1027 10 16.0934 N/A
11:55 pm 23:55 Clear 43 6 26 -3.3 52 52 N 9 15 30.39 1029 10 16.0934 N/A

Powered by AerisWeather